Time,TemperatureF,DewpointF,PressureIn,WindDirection,WindDirectionDegrees,WindSpeedMPH,WindSpeedGustMPH,Humidity,HourlyPrecipIn,Conditions,Clouds,dailyrainin,SoftwareType,DateUTC
2016-07-26 00:04:00,75.0,72.5,29.75,NNW,331,1.0,3.0,92,0.00,,,0.00,VWS V12.08,2016-07-26 04:04:00,
2016-07-26 00:09:00,75.0,72.5,29.75,NE,48,0.0,3.0,92,0.00,,,0.00,VWS V12.08,2016-07-26 04:09:00,
2016-07-26 00:14:00,75.0,72.5,29.75,South,187,0.0,3.0,92,0.00,,,0.00,VWS V12.08,2016-07-26 04:14:00,
2016-07-26 00:19:00,75.1,72.6,29.75,NE,53,0.0,3.0,92,0.00,,,0.00,VWS V12.08,2016-07-26 04:19:00,
2016-07-26 00:24:00,75.1,72.9,29.74,NNW,331,0.0,3.0,93,0.00,,,0.00,VWS V12.08,2016-07-26 04:24:00,
2016-07-26 00:29:00,75.2,73.0,29.74,SSE,153,0.0,3.0,93,0.00,,,0.00,VWS V12.08,2016-07-26 04:29:00,
2016-07-26 00:34:00,75.2,73.0,29.74,SSW,196,0.0,2.0,93,0.00,,,0.00,VWS V12.08,2016-07-26 04:34:00,
2016-07-26 00:39:00,75.2,73.0,29.74,ESE,121,0.0,3.0,93,0.00,,,0.00,VWS V12.08,2016-07-26 04:39:00,
2016-07-26 00:44:00,75.2,72.7,29.75,SE,146,0.0,3.0,92,0.00,,,0.00,VWS V12.08,2016-07-26 04:44:00,
2016-07-26 00:49:00,75.3,72.8,29.75,SE,146,0.0,3.0,92,0.00,,,0.00,VWS V12.08,2016-07-26 04:49:00,
2016-07-26 00:54:00,75.3,72.8,29.74,SE,143,0.0,3.0,92,0.00,,,0.00,VWS V12.08,2016-07-26 04:54:00,
2016-07-26 00:59:00,75.3,72.8,29.74,SE,143,0.0,3.0,92,0.00,,,0.00,VWS V12.08,2016-07-26 04:59:00,
2016-07-26 01:04:00,75.3,72.8,29.74,SE,143,0.0,1.0,92,0.00,,,0.00,VWS V12.08,2016-07-26 05:04:00,
2016-07-26 01:09:00,75.3,72.8,29.74,ESE,111,0.0,3.0,92,0.00,,,0.00,VWS V12.08,2016-07-26 05:09:00,
2016-07-26 01:14:00,75.3,72.8,29.74,ESE,109,1.0,3.0,92,0.00,,,0.00,VWS V12.08,2016-07-26 05:14:00,
2016-07-26 01:19:00,75.3,72.8,29.74,ESE,109,0.0,3.0,92,0.00,,,0.00,VWS V12.08,2016-07-26 05:19:00,
2016-07-26 01:24:00,75.2,72.7,29.73,ESE,105,1.0,3.0,92,0.00,,,0.00,VWS V12.08,2016-07-26 05:24:00,
2016-07-26 01:29:00,75.2,72.7,29.74,ESE,102,0.0,3.0,92,0.00,,,0.00,VWS V12.08,2016-07-26 05:29:00,
2016-07-26 01:34:00,75.1,72.6,29.73,NE,36,0.0,1.0,92,0.00,,,0.00,VWS V12.08,2016-07-26 05:34:00,
2016-07-26 01:39:00,75.1,72.6,29.73,NE,36,0.0,1.0,92,0.00,,,0.00,VWS V12.08,2016-07-26 05:39:00,
2016-07-26 01:44:00,75.0,72.5,29.73,NE,36,0.0,1.0,92,0.00,,,0.00,VWS V12.08,2016-07-26 05:44:00,
2016-07-26 01:49:00,74.9,72.4,29.73,NE,36,0.0,1.0,92,0.00,,,0.00,VWS V12.08,2016-07-26 05:49:00,
2016-07-26 01:54:00,74.8,72.3,29.73,NE,36,0.0,1.0,92,0.00,,,0.00,VWS V12.08,2016-07-26 05:54:00,
2016-07-26 01:59:00,74.7,71.9,29.73,NE,36,0.0,1.0,91,0.00,,,0.00,VWS V12.08,2016-07-26 05:59:00,
2016-07-26 02:04:00,74.6,71.8,29.73,NE,36,0.0,0.0,91,0.00,,,0.00,VWS V12.08,2016-07-26 06:04:00,
2016-07-26 02:14:00,74.4,71.9,29.72,NE,36,0.0,0.0,92,0.00,,,0.00,VWS V12.08,2016-07-26 06:14:00,
2016-07-26 02:19:00,74.3,71.8,29.72,NE,36,0.0,0.0,92,0.00,,,0.00,VWS V12.08,2016-07-26 06:19:00,
2016-07-26 02:24:00,74.1,71.6,29.72,NE,36,0.0,1.0,92,0.00,,,0.00,VWS V12.08,2016-07-26 06:24:00,
2016-07-26 02:29:00,74.0,71.2,29.73,NE,36,0.0,1.0,91,0.00,,,0.00,VWS V12.08,2016-07-26 06:29:00,
2016-07-26 02:34:00,73.9,71.4,29.72,NE,36,0.0,0.0,92,0.00,,,0.00,VWS V12.08,2016-07-26 06:34:00,
2016-07-26 02:39:00,73.8,71.3,29.72,NE,35,0.0,2.0,92,0.00,,,0.00,VWS V12.08,2016-07-26 06:39:00,
2016-07-26 02:44:00,73.7,71.2,29.73,NE,35,0.0,2.0,92,0.00,,,0.00,VWS V12.08,2016-07-26 06:44:00,
2016-07-26 02:49:00,73.6,71.1,29.73,NE,35,0.0,2.0,92,0.00,,,0.00,VWS V12.08,2016-07-26 06:49:00,
2016-07-26 02:54:00,73.5,71.0,29.72,NE,35,0.0,2.0,92,0.00,,,0.00,VWS V12.08,2016-07-26 06:54:00,
2016-07-26 02:59:00,73.4,70.9,29.72,NE,35,0.0,2.0,92,0.00,,,0.00,VWS V12.08,2016-07-26 06:59:00,
2016-07-26 03:04:00,73.3,70.8,29.72,NE,35,0.0,0.0,92,0.00,,,0.00,VWS V12.08,2016-07-26 07:04:00,
2016-07-26 03:09:00,73.2,70.7,29.72,NE,35,0.0,1.0,92,0.00,,,0.00,VWS V12.08,2016-07-26 07:09:00,
2016-07-26 03:14:00,73.1,70.6,29.73,NNE,32,0.0,1.0,92,0.00,,,0.00,VWS V12.08,2016-07-26 07:14:00,
2016-07-26 03:19:00,73.0,70.5,29.72,North,5,0.0,2.0,92,0.00,,,0.00,VWS V12.08,2016-07-26 07:19:00,
2016-07-26 03:24:00,73.0,70.5,29.72,North,5,0.0,2.0,92,0.00,,,0.00,VWS V12.08,2016-07-26 07:24:00,
2016-07-26 03:29:00,72.9,70.4,29.72,North,5,0.0,2.0,92,0.00,,,0.00,VWS V12.08,2016-07-26 07:29:00,
2016-07-26 03:34:00,72.9,70.4,29.73,NNW,344,0.0,2.0,92,0.00,,,0.00,VWS V12.08,2016-07-26 07:34:00,
2016-07-26 03:39:00,72.8,70.3,29.73,NNW,344,0.0,2.0,92,0.00,,,0.00,VWS V12.08,2016-07-26 07:39:00,
2016-07-26 03:44:00,72.8,70.3,29.73,North,350,2.0,2.0,92,0.00,,,0.00,VWS V12.08,2016-07-26 07:44:00,
2016-07-26 03:49:00,72.7,70.2,29.73,North,350,0.0,2.0,92,0.00,,,0.00,VWS V12.08,2016-07-26 07:49:00,
2016-07-26 03:54:00,72.7,70.2,29.73,NW,323,0.0,2.0,92,0.00,,,0.00,VWS V12.08,2016-07-26 07:54:00,
2016-07-26 03:59:00,72.7,70.2,29.73,NW,323,0.0,2.0,92,0.00,,,0.00,VWS V12.08,2016-07-26 07:59:00,
2016-07-26 04:00:00,72.7,70.2,29.73,NW,323,0.0,2.0,92,0.00,,,0.00,VWS V12.08,2016-07-26 08:00:00,
2016-07-26 04:04:00,72.6,70.2,29.73,NNW,348,0.0,2.0,92,0.00,,,0.00,VWS V12.08,2016-07-26 08:04:00,
2016-07-26 04:09:00,72.6,70.2,29.73,NNW,348,1.0,2.0,92,0.00,,,0.00,VWS V12.08,2016-07-26 08:09:00,
2016-07-26 04:14:00,72.6,70.2,29.73,NNW,348,0.0,1.0,92,0.00,,,0.00,VWS V12.08,2016-07-26 08:14:00,
2016-07-26 04:19:00,72.6,70.2,29.73,NNW,348,0.0,1.0,92,0.00,,,0.00,VWS V12.08,2016-07-26 08:19:00,
2016-07-26 04:24:00,72.5,70.1,29.73,NNW,348,0.0,1.0,92,0.00,,,0.00,VWS V12.08,2016-07-26 08:24:00,
2016-07-26 04:29:00,72.5,70.1,29.73,NNW,348,0.0,1.0,92,0.00,,,0.00,VWS V12.08,2016-07-26 08:29:00,
2016-07-26 04:34:00,72.4,69.9,29.73,NNW,348,0.0,0.0,92,0.00,,,0.00,VWS V12.08,2016-07-26 08:34:00,
2016-07-26 04:39:00,72.4,69.9,29.73,NNW,348,0.0,1.0,92,0.00,,,0.00,VWS V12.08,2016-07-26 08:39:00,
2016-07-26 04:44:00,72.3,69.8,29.73,NNW,348,0.0,1.0,92,0.00,,,0.00,VWS V12.08,2016-07-26 08:44:00,
2016-07-26 04:49:00,72.3,69.8,29.74,NNE,26,1.0,2.0,92,0.00,,,0.00,VWS V12.08,2016-07-26 08:49:00,
2016-07-26 04:54:00,72.3,69.8,29.74,NNE,24,0.0,2.0,92,0.00,,,0.00,VWS V12.08,2016-07-26 08:54:00,
2016-07-26 04:59:00,72.2,69.8,29.74,NNE,24,0.0,1.0,92,0.00,,,0.00,VWS V12.08,2016-07-26 08:59:00,
2016-07-26 05:04:00,72.2,69.8,29.74,NNE,24,0.0,1.0,92,0.00,,,0.00,VWS V12.08,2016-07-26 09:04:00,
2016-07-26 05:09:00,72.2,69.8,29.74,North,5,0.0,1.0,92,0.00,,,0.00,VWS V12.08,2016-07-26 09:09:00,
2016-07-26 05:14:00,72.2,69.8,29.75,North,5,0.0,1.0,92,0.00,,,0.00,VWS V12.08,2016-07-26 09:14:00,
2016-07-26 05:19:00,72.2,69.8,29.75,North,5,1.0,1.0,92,0.00,,,0.00,VWS V12.08,2016-07-26 09:19:00,
2016-07-26 05:24:00,72.2,69.8,29.75,North,5,0.0,1.0,92,0.00,,,0.00,VWS V12.08,2016-07-26 09:24:00,
2016-07-26 05:29:00,72.2,69.8,29.75,North,5,0.0,1.0,92,0.00,,,0.00,VWS V12.08,2016-07-26 09:29:00,
2016-07-26 05:34:00,72.2,69.8,29.75,North,5,0.0,1.0,92,0.00,,,0.00,VWS V12.08,2016-07-26 09:34:00,
2016-07-26 05:39:00,72.1,69.7,29.75,North,5,0.0,1.0,92,0.00,,,0.00,VWS V12.08,2016-07-26 09:39:00,
2016-07-26 05:44:00,72.1,69.7,29.75,North,5,0.0,1.0,92,0.00,,,0.00,VWS V12.08,2016-07-26 09:44:00,
2016-07-26 05:49:00,72.1,69.7,29.75,North,5,0.0,1.0,92,0.00,,,0.00,VWS V12.08,2016-07-26 09:49:00,
2016-07-26 05:54:00,72.1,69.7,29.75,North,5,0.0,1.0,92,0.00,,,0.00,VWS V12.08,2016-07-26 09:54:00,
2016-07-26 05:59:00,72.1,69.3,29.75,NNE,19,0.0,2.0,91,0.00,,,0.00,VWS V12.08,2016-07-26 09:59:00,
2016-07-26 06:04:00,72.1,69.3,29.75,NNE,19,0.0,1.0,91,0.00,,,0.00,VWS V12.08,2016-07-26 10:04:00,
2016-07-26 06:09:00,72.2,69.4,29.75,NNE,19,0.0,1.0,91,0.00,,,0.00,VWS V12.08,2016-07-26 10:09:00,
2016-07-26 06:14:00,72.2,69.4,29.75,NNE,19,0.0,2.0,91,0.00,,,0.00,VWS V12.08,2016-07-26 10:14:00,
2016-07-26 06:19:00,72.2,69.4,29.75,NNE,19,0.0,2.0,91,0.00,,,0.00,VWS V12.08,2016-07-26 10:19:00,
2016-07-26 06:24:00,72.2,69.4,29.75,NNE,19,0.0,2.0,91,0.00,,,0.00,VWS V12.08,2016-07-26 10:24:00,
2016-07-26 06:29:00,72.2,69.4,29.75,NNE,19,0.0,2.0,91,0.00,,,0.00,VWS V12.08,2016-07-26 10:29:00,
2016-07-26 06:34:00,72.2,69.4,29.76,NNE,19,0.0,0.0,91,0.00,,,0.00,VWS V12.08,2016-07-26 10:34:00,
2016-07-26 06:39:00,72.3,69.5,29.76,NNE,19,0.0,0.0,91,0.00,,,0.00,VWS V12.08,2016-07-26 10:39:00,
2016-07-26 06:44:00,72.3,69.5,29.76,NNW,329,0.0,1.0,91,0.00,,,0.00,VWS V12.08,2016-07-26 10:44:00,
2016-07-26 06:49:00,72.4,69.6,29.76,North,355,1.0,3.0,91,0.00,,,0.00,VWS V12.08,2016-07-26 10:49:00,
2016-07-26 06:54:00,72.4,69.6,29.76,North,5,0.0,3.0,91,0.00,,,0.00,VWS V12.08,2016-07-26 10:54:00,
2016-07-26 06:59:00,72.5,69.7,29.76,NNW,330,1.0,2.0,91,0.00,,,0.00,VWS V12.08,2016-07-26 10:59:00,
2016-07-26 07:04:00,72.6,69.8,29.76,WNW,295,0.0,2.0,91,0.00,,,0.00,VWS V12.08,2016-07-26 11:04:00,
2016-07-26 07:09:00,72.8,69.7,29.77,NNE,14,0.0,2.0,90,0.00,,,0.00,VWS V12.08,2016-07-26 11:09:00,
2016-07-26 07:15:00,73.0,69.6,29.77,NW,306,0.0,4.0,89,0.00,,,0.00,VWS V12.08,2016-07-26 11:15:00,
2016-07-26 07:20:00,73.2,69.8,29.77,NW,321,0.0,4.0,89,0.00,,,0.00,VWS V12.08,2016-07-26 11:20:00,
2016-07-26 07:25:00,73.4,69.6,29.77,NNW,333,0.0,5.0,88,0.00,,,0.00,VWS V12.08,2016-07-26 11:25:00,
2016-07-26 07:30:00,73.6,69.8,29.77,NNE,22,0.0,1.0,88,0.00,,,0.00,VWS V12.08,2016-07-26 11:30:00,
2016-07-26 07:35:00,73.9,70.1,29.77,South,177,2.0,2.0,88,0.00,,,0.00,VWS V12.08,2016-07-26 11:35:00,
2016-07-26 07:40:00,74.1,70.0,29.77,North,355,1.0,2.0,87,0.00,,,0.00,VWS V12.08,2016-07-26 11:40:00,
2016-07-26 07:45:00,74.4,69.9,29.77,NNW,331,1.0,2.0,86,0.00,,,0.00,VWS V12.08,2016-07-26 11:45:00,
2016-07-26 07:50:00,74.7,70.2,29.77,NNE,21,1.0,3.0,86,0.00,,,0.00,VWS V12.08,2016-07-26 11:50:00,
2016-07-26 07:55:00,74.9,70.1,29.76,NNE,15,0.0,3.0,85,0.00,,,0.00,VWS V12.08,2016-07-26 11:55:00,
2016-07-26 08:00:00,75.1,70.3,29.77,North,355,1.0,3.0,85,0.00,,,0.00,VWS V12.08,2016-07-26 12:00:00,
2016-07-26 08:05:00,75.3,70.1,29.77,North,5,1.0,2.0,84,0.00,,,0.00,VWS V12.08,2016-07-26 12:05:00,
2016-07-26 08:10:00,75.6,70.4,29.77,NNE,22,1.0,3.0,84,0.00,,,0.00,VWS V12.08,2016-07-26 12:10:00,
2016-07-26 08:15:00,75.8,70.3,29.77,NNE,30,0.0,3.0,83,0.00,,,0.00,VWS V12.08,2016-07-26 12:15:00,
2016-07-26 08:20:00,76.0,70.5,29.77,North,5,0.0,3.0,83,0.00,,,0.00,VWS V12.08,2016-07-26 12:20:00,
2016-07-26 08:25:00,76.2,70.7,29.77,NW,310,0.0,3.0,83,0.00,,,0.00,VWS V12.08,2016-07-26 12:25:00,
2016-07-26 08:30:00,76.5,70.2,29.77,West,276,1.0,1.0,81,0.00,,,0.00,VWS V12.08,2016-07-26 12:30:00,
2016-07-26 08:35:00,76.7,70.4,29.77,NE,37,1.0,2.0,81,0.00,,,0.00,VWS V12.08,2016-07-26 12:35:00,
2016-07-26 08:40:00,77.1,70.1,29.77,NNW,344,1.0,2.0,79,0.00,,,0.00,VWS V12.08,2016-07-26 12:40:00,
2016-07-26 08:45:00,77.4,70.0,29.77,NNW,339,1.0,3.0,78,0.00,,,0.00,VWS V12.08,2016-07-26 12:45:00,
2016-07-26 08:50:00,77.7,70.3,29.77,North,360,1.0,3.0,78,0.00,,,0.00,VWS V12.08,2016-07-26 12:50:00,
2016-07-26 08:55:00,78.0,70.2,29.77,NW,324,1.0,3.0,77,0.00,,,0.00,VWS V12.08,2016-07-26 12:55:00,
2016-07-26 09:00:00,78.3,70.1,29.76,NW,316,2.0,3.0,76,0.00,,,0.00,VWS V12.08,2016-07-26 13:00:00,
2016-07-26 09:05:00,78.7,69.7,29.76,NW,311,1.0,3.0,74,0.00,,,0.00,VWS V12.08,2016-07-26 13:05:00,
2016-07-26 09:10:00,79.2,69.8,29.76,NNE,29,1.0,4.0,73,0.00,,,0.00,VWS V12.08,2016-07-26 13:10:00,
2016-07-26 09:15:00,79.6,69.0,29.76,WSW,242,0.0,4.0,70,0.00,,,0.00,VWS V12.08,2016-07-26 13:15:00,
2016-07-26 09:20:00,80.1,69.9,29.76,NNW,346,0.0,4.0,71,0.00,,,0.00,VWS V12.08,2016-07-26 13:20:00,
2016-07-26 09:25:00,80.5,69.8,29.76,NNW,331,1.0,4.0,70,0.00,,,0.00,VWS V12.08,2016-07-26 13:25:00,
2016-07-26 09:30:00,80.9,68.9,29.76,WNW,295,1.0,4.0,67,0.00,,,0.00,VWS V12.08,2016-07-26 13:30:00,
2016-07-26 09:35:00,81.3,68.9,29.76,North,5,2.0,4.0,66,0.00,,,0.00,VWS V12.08,2016-07-26 13:35:00,
2016-07-26 09:40:00,81.7,69.2,29.76,NE,46,0.0,4.0,66,0.00,,,0.00,VWS V12.08,2016-07-26 13:40:00,
2016-07-26 09:45:00,82.1,68.3,29.76,NW,307,0.0,4.0,63,0.00,,,0.00,VWS V12.08,2016-07-26 13:45:00,
2016-07-26 09:50:00,82.7,68.8,29.76,NNE,16,1.0,3.0,63,0.00,,,0.00,VWS V12.08,2016-07-26 13:50:00,
2016-07-26 09:55:00,83.2,69.3,29.77,North,10,1.0,3.0,63,0.00,,,0.00,VWS V12.08,2016-07-26 13:55:00,
2016-07-26 10:00:00,83.7,69.8,29.77,NW,306,1.0,3.0,63,0.00,,,0.00,VWS V12.08,2016-07-26 14:00:00,
2016-07-26 10:05:00,84.3,69.9,29.76,NW,325,0.0,3.0,62,0.00,,,0.00,VWS V12.08,2016-07-26 14:05:00,
2016-07-26 10:10:00,84.9,68.5,29.76,NNW,333,0.0,3.0,58,0.00,,,0.00,VWS V12.08,2016-07-26 14:10:00,
2016-07-26 10:15:00,85.4,68.4,29.76,North,350,0.0,3.0,57,0.00,,,0.00,VWS V12.08,2016-07-26 14:15:00,
2016-07-26 10:20:00,86.0,68.5,29.76,North,11,1.0,3.0,56,0.00,,,0.00,VWS V12.08,2016-07-26 14:20:00,
2016-07-26 10:25:00,86.6,69.1,29.76,NNW,340,1.0,3.0,56,0.00,,,0.00,VWS V12.08,2016-07-26 14:25:00,
2016-07-26 10:30:00,87.2,68.5,29.76,North,360,1.0,3.0,54,0.00,,,0.00,VWS V12.08,2016-07-26 14:30:00,
2016-07-26 10:35:00,87.8,69.6,29.76,NNW,329,1.0,3.0,55,0.00,,,0.00,VWS V12.08,2016-07-26 14:35:00,
2016-07-26 10:40:00,88.5,68.6,29.76,NNW,334,0.0,3.0,52,0.00,,,0.00,VWS V12.08,2016-07-26 14:40:00,
2016-07-26 10:45:00,89.1,69.2,29.76,NNW,344,0.0,3.0,52,0.00,,,0.00,VWS V12.08,2016-07-26 14:45:00,
2016-07-26 10:50:00,89.9,68.8,29.76,NNW,340,1.0,6.0,50,0.00,,,0.00,VWS V12.08,2016-07-26 14:50:00,
2016-07-26 10:55:00,90.4,67.4,29.76,NNE,31,1.0,6.0,47,0.00,,,0.00,VWS V12.08,2016-07-26 14:55:00,
2016-07-26 11:00:00,90.9,68.5,29.76,NW,305,2.0,6.0,48,0.00,,,0.00,VWS V12.08,2016-07-26 15:00:00,
2016-07-26 11:05:00,91.3,68.9,29.76,WNW,302,0.0,6.0,48,0.00,,,0.00,VWS V12.08,2016-07-26 15:05:00,
2016-07-26 11:10:00,91.6,68.5,29.76,North,10,1.0,6.0,47,0.00,,,0.00,VWS V12.08,2016-07-26 15:10:00,
2016-07-26 11:15:00,91.9,69.4,29.76,North,9,0.0,3.0,48,0.00,,,0.00,VWS V12.08,2016-07-26 15:15:00,
2016-07-26 11:20:00,92.3,69.2,29.76,North,355,1.0,3.0,47,0.00,,,0.00,VWS V12.08,2016-07-26 15:20:00,
2016-07-26 11:25:00,92.9,69.1,29.76,NW,319,2.0,3.0,46,0.00,,,0.00,VWS V12.08,2016-07-26 15:25:00,
2016-07-26 11:30:00,93.3,69.4,29.76,NW,316,1.0,3.0,46,0.00,,,0.00,VWS V12.08,2016-07-26 15:30:00,
2016-07-26 11:35:00,93.9,68.0,29.76,North,355,1.0,3.0,43,0.00,,,0.00,VWS V12.08,2016-07-26 15:35:00,
2016-07-26 11:40:00,94.3,69.1,29.76,West,266,1.0,3.0,44,0.00,,,0.00,VWS V12.08,2016-07-26 15:40:00,
2016-07-26 11:45:00,94.7,68.1,29.75,NW,304,1.0,3.0,42,0.00,,,0.00,VWS V12.08,2016-07-26 15:45:00,
2016-07-26 11:50:00,95.1,69.1,29.76,North,11,1.0,3.0,43,0.00,,,0.00,VWS V12.08,2016-07-26 15:50:00,
2016-07-26 11:55:00,95.3,68.6,29.76,ENE,57,1.0,3.0,42,0.00,,,0.00,VWS V12.08,2016-07-26 15:55:00,
2016-07-26 12:00:00,95.6,68.9,29.76,NNW,333,1.0,3.0,42,0.00,,,0.00,VWS V12.08,2016-07-26 16:00:00,
2016-07-26 12:05:00,96.1,69.3,29.76,North,355,0.0,3.0,42,0.00,,,0.00,VWS V12.08,2016-07-26 16:05:00,
2016-07-26 12:10:00,96.5,66.8,29.76,WNW,291,1.0,3.0,38,0.00,,,0.00,VWS V12.08,2016-07-26 16:10:00,
2016-07-26 12:15:00,96.6,67.6,29.76,NNW,346,1.0,3.0,39,0.00,,,0.00,VWS V12.08,2016-07-26 16:15:00,
2016-07-26 12:20:00,96.7,68.4,29.75,NW,323,1.0,3.0,40,0.00,,,0.00,VWS V12.08,2016-07-26 16:20:00,
2016-07-26 12:25:00,97.1,68.8,29.75,NNW,343,0.0,3.0,40,0.00,,,0.00,VWS V12.08,2016-07-26 16:25:00,
2016-07-26 12:30:00,97.6,69.9,29.75,NW,317,0.0,3.0,41,0.00,,,0.00,VWS V12.08,2016-07-26 16:30:00,
2016-07-26 12:35:00,98.0,68.8,29.75,North,5,0.0,3.0,39,0.00,,,0.00,VWS V12.08,2016-07-26 16:35:00,
2016-07-26 12:40:00,98.5,69.3,29.75,NNW,334,1.0,3.0,39,0.00,,,0.00,VWS V12.08,2016-07-26 16:40:00,
2016-07-26 12:45:00,98.9,69.6,29.75,WNW,298,1.0,3.0,39,0.00,,,0.00,VWS V12.08,2016-07-26 16:45:00,
2016-07-26 12:50:00,99.3,69.2,29.75,NNW,329,1.0,3.0,38,0.00,,,0.00,VWS V12.08,2016-07-26 16:50:00,
2016-07-26 12:55:00,99.7,69.6,29.75,NNW,329,0.0,3.0,38,0.00,,,0.00,VWS V12.08,2016-07-26 16:55:00,
2016-07-26 13:00:00,100.2,70.0,29.75,NE,35,1.0,2.0,38,0.00,,,0.00,VWS V12.08,2016-07-26 17:00:00,
2016-07-26 13:05:00,100.3,69.3,29.75,NNE,17,1.0,2.0,37,0.00,,,0.00,VWS V12.08,2016-07-26 17:05:00,
2016-07-26 13:10:00,100.3,69.3,29.75,North,10,0.0,2.0,37,0.00,,,0.00,VWS V12.08,2016-07-26 17:10:00,
2016-07-26 13:15:00,100.2,69.2,29.75,North,11,2.0,2.0,37,0.00,,,0.00,VWS V12.08,2016-07-26 17:15:00,
2016-07-26 13:20:00,100.2,69.2,29.75,North,5,0.0,2.0,37,0.00,,,0.00,VWS V12.08,2016-07-26 17:20:00,
2016-07-26 13:25:00,100.4,67.8,29.75,North,5,1.0,2.0,35,0.00,,,0.00,VWS V12.08,2016-07-26 17:25:00,
2016-07-26 13:30:00,100.5,70.3,29.75,North,9,0.0,1.0,38,0.00,,,0.00,VWS V12.08,2016-07-26 17:30:00,
2016-07-26 13:35:00,100.7,72.0,29.75,North,355,1.0,2.0,40,0.00,,,0.00,VWS V12.08,2016-07-26 17:35:00,
2016-07-26 13:40:00,100.9,69.9,29.74,North,355,0.0,2.0,37,0.00,,,0.00,VWS V12.08,2016-07-26 17:40:00,
2016-07-26 13:45:00,100.8,69.0,29.74,North,355,0.0,2.0,36,0.00,,,0.00,VWS V12.08,2016-07-26 17:45:00,
2016-07-26 13:50:00,100.7,71.2,29.75,NNW,346,0.0,2.0,39,0.00,,,0.00,VWS V12.08,2016-07-26 17:50:00,
2016-07-26 13:55:00,100.6,70.4,29.74,NNW,329,0.0,2.0,38,0.00,,,0.00,VWS V12.08,2016-07-26 17:55:00,
2016-07-26 14:00:00,100.1,72.2,29.74,NW,324,0.0,1.0,41,0.00,,,0.00,VWS V12.08,2016-07-26 18:00:00,
2016-07-26 14:05:00,99.8,68.9,29.74,NW,324,1.0,2.0,37,0.00,,,0.00,VWS V12.08,2016-07-26 18:05:00,
2016-07-26 14:10:00,99.8,69.7,29.74,NNW,342,1.0,2.0,38,0.00,,,0.00,VWS V12.08,2016-07-26 18:10:00,
2016-07-26 14:15:00,99.9,67.4,29.74,NNW,342,0.0,2.0,35,0.00,,,0.00,VWS V12.08,2016-07-26 18:15:00,
2016-07-26 14:20:00,99.9,68.2,29.74,NNW,342,0.0,2.0,36,0.00,,,0.00,VWS V12.08,2016-07-26 18:20:00,
2016-07-26 14:25:00,100.0,68.3,29.75,NNW,342,0.0,2.0,36,0.00,,,0.00,VWS V12.08,2016-07-26 18:25:00,
2016-07-26 14:30:00,100.0,69.1,29.74,ENE,62,1.0,2.0,37,0.00,,,0.00,VWS V12.08,2016-07-26 18:30:00,
2016-07-26 14:35:00,99.7,67.2,29.74,ENE,69,1.0,2.0,35,0.00,,,0.00,VWS V12.08,2016-07-26 18:35:00,
2016-07-26 14:40:00,99.7,65.5,29.74,NW,321,1.0,2.0,33,0.00,,,0.00,VWS V12.08,2016-07-26 18:40:00,
2016-07-26 14:45:00,99.6,67.1,29.75,NW,321,1.0,2.0,35,0.00,,,0.00,VWS V12.08,2016-07-26 18:45:00,
2016-07-26 14:50:00,99.6,66.3,29.74,NW,321,0.0,2.0,34,0.00,,,0.00,VWS V12.08,2016-07-26 18:50:00,
2016-07-26 14:55:00,99.6,67.1,29.74,NNW,327,0.0,2.0,35,0.00,,,0.00,VWS V12.08,2016-07-26 18:55:00,
2016-07-26 15:00:00,99.6,67.1,29.74,NE,34,0.0,1.0,35,0.00,,,0.00,VWS V12.08,2016-07-26 19:00:00,
2016-07-26 15:05:00,99.5,66.2,29.74,NE,34,0.0,1.0,34,0.00,,,0.00,VWS V12.08,2016-07-26 19:05:00,
2016-07-26 15:10:00,99.6,67.1,29.74,NE,34,0.0,1.0,35,0.00,,,0.00,VWS V12.08,2016-07-26 19:10:00,
2016-07-26 15:15:00,99.7,65.5,29.74,NE,34,0.0,1.0,33,0.00,,,0.00,VWS V12.08,2016-07-26 19:15:00,
2016-07-26 15:18:00,99.6,67.1,29.74,NE,34,0.0,1.0,35,0.00,,,0.00,VWS V12.08,2016-07-26 19:18:00,
2016-07-26 15:23:00,99.0,67.4,29.74,North,349,0.0,1.0,36,0.00,,,0.00,VWS V12.08,2016-07-26 19:23:00,
2016-07-26 15:28:00,98.9,65.7,29.74,NNW,348,1.0,1.0,34,0.00,,,0.00,VWS V12.08,2016-07-26 19:28:00,
2016-07-26 15:30:00,98.9,67.3,29.74,North,350,0.0,1.0,36,0.00,,,0.00,VWS V12.08,2016-07-26 19:30:00,
2016-07-26 15:33:00,98.7,65.5,29.74,North,350,0.0,1.0,34,0.00,,,0.00,VWS V12.08,2016-07-26 19:33:00,
2016-07-26 15:38:00,98.5,66.1,29.74,NNW,331,0.0,1.0,35,0.00,,,0.00,VWS V12.08,2016-07-26 19:38:00,
2016-07-26 15:43:00,98.3,65.1,29.74,NNW,342,0.0,1.0,34,0.00,,,0.00,VWS V12.08,2016-07-26 19:43:00,
2016-07-26 15:48:00,98.1,65.0,29.74,NNW,331,0.0,2.0,34,0.00,,,0.00,VWS V12.08,2016-07-26 19:48:00,
2016-07-26 15:53:00,97.8,64.7,29.75,NW,313,0.0,3.0,34,0.00,,,0.00,VWS V12.08,2016-07-26 19:53:00,
2016-07-26 15:58:00,97.4,65.2,29.74,NW,315,0.0,3.0,35,0.00,,,0.00,VWS V12.08,2016-07-26 19:58:00,
2016-07-26 16:03:00,97.2,66.6,29.74,NW,315,0.0,1.0,37,0.00,,,0.00,VWS V12.08,2016-07-26 20:03:00,
2016-07-26 16:08:00,97.0,66.4,29.75,NNE,15,0.0,2.0,37,0.00,,,0.00,VWS V12.08,2016-07-26 20:08:00,
2016-07-26 16:13:00,96.8,65.5,29.74,WNW,292,1.0,3.0,36,0.00,,,0.00,VWS V12.08,2016-07-26 20:13:00,
2016-07-26 16:18:00,96.5,64.4,29.74,WNW,292,0.0,3.0,35,0.00,,,0.00,VWS V12.08,2016-07-26 20:18:00,
2016-07-26 16:23:00,96.1,64.8,29.74,WNW,292,0.0,3.0,36,0.00,,,0.00,VWS V12.08,2016-07-26 20:23:00,
2016-07-26 16:28:00,95.8,64.6,29.74,WNW,300,1.0,3.0,36,0.00,,,0.00,VWS V12.08,2016-07-26 20:28:00,
2016-07-26 16:30:00,95.7,63.7,29.74,WNW,300,1.0,3.0,35,0.00,,,0.00,VWS V12.08,2016-07-26 20:30:00,
2016-07-26 16:33:00,95.5,64.3,29.74,WNW,300,0.0,3.0,36,0.00,,,0.00,VWS V12.08,2016-07-26 20:33:00,
2016-07-26 16:38:00,95.1,64.8,29.74,WNW,300,0.0,3.0,37,0.00,,,0.00,VWS V12.08,2016-07-26 20:38:00,
2016-07-26 16:43:00,94.9,63.0,29.74,WNW,300,0.0,3.0,35,0.00,,,0.00,VWS V12.08,2016-07-26 20:43:00,
2016-07-26 16:48:00,94.7,63.6,29.74,WNW,301,0.0,2.0,36,0.00,,,0.00,VWS V12.08,2016-07-26 20:48:00,
2016-07-26 16:53:00,94.4,64.1,29.74,WNW,301,0.0,2.0,37,0.00,,,0.00,VWS V12.08,2016-07-26 20:53:00,
2016-07-26 16:58:00,94.1,65.4,29.75,WNW,301,0.0,2.0,39,0.00,,,0.00,VWS V12.08,2016-07-26 20:58:00,
2016-07-26 17:03:00,93.7,66.5,29.75,NW,304,0.0,0.0,41,0.00,,,0.00,VWS V12.08,2016-07-26 21:03:00,
2016-07-26 17:08:00,93.1,65.9,29.74,NNW,348,0.0,2.0,41,0.00,,,0.00,VWS V12.08,2016-07-26 21:08:00,
2016-07-26 17:13:00,92.3,65.2,29.75,NNW,344,0.0,2.0,41,0.00,,,0.00,VWS V12.08,2016-07-26 21:13:00,
2016-07-26 17:18:00,91.6,66.0,29.75,NE,51,1.0,2.0,43,0.00,,,0.00,VWS V12.08,2016-07-26 21:18:00,
2016-07-26 17:23:00,90.9,65.3,29.75,NE,51,0.0,2.0,43,0.00,,,0.00,VWS V12.08,2016-07-26 21:23:00,
2016-07-26 17:28:00,90.3,66.1,29.75,NE,51,0.0,2.0,45,0.00,,,0.00,VWS V12.08,2016-07-26 21:28:00,
2016-07-26 17:33:00,89.9,65.7,29.75,NNE,17,1.0,1.0,45,0.00,,,0.00,VWS V12.08,2016-07-26 21:33:00,
2016-07-26 17:38:00,89.3,65.8,29.75,NNE,17,0.0,1.0,46,0.00,,,0.00,VWS V12.08,2016-07-26 21:38:00,
2016-07-26 17:43:00,88.8,66.0,29.75,NNE,17,0.0,1.0,47,0.00,,,0.00,VWS V12.08,2016-07-26 21:43:00,
2016-07-26 17:48:00,88.4,66.8,29.75,NNE,17,0.0,2.0,49,0.00,,,0.00,VWS V12.08,2016-07-26 21:48:00,
2016-07-26 17:53:00,88.1,66.6,29.76,NNE,17,0.0,2.0,49,0.00,,,0.00,VWS V12.08,2016-07-26 21:53:00,
2016-07-26 17:58:00,87.7,66.8,29.75,NNE,17,0.0,2.0,50,0.00,,,0.00,VWS V12.08,2016-07-26 21:58:00,
2016-07-26 18:03:00,87.3,66.4,29.75,NNE,17,0.0,1.0,50,0.00,,,0.00,VWS V12.08,2016-07-26 22:03:00,
2016-07-26 18:08:00,86.9,65.5,29.76,NNE,17,0.0,1.0,49,0.00,,,0.00,VWS V12.08,2016-07-26 22:08:00,
2016-07-26 18:13:00,86.6,66.3,29.76,NNE,17,0.0,1.0,51,0.00,,,0.00,VWS V12.08,2016-07-26 22:13:00,
2016-07-26 18:18:00,86.3,66.6,29.75,WNW,295,0.0,2.0,52,0.00,,,0.00,VWS V12.08,2016-07-26 22:18:00,
2016-07-26 18:23:00,86.0,66.9,29.75,WNW,295,1.0,2.0,53,0.00,,,0.00,VWS V12.08,2016-07-26 22:23:00,
2016-07-26 18:28:00,85.7,67.2,29.75,WNW,295,1.0,2.0,54,0.00,,,0.00,VWS V12.08,2016-07-26 22:28:00,